User: anonymous   Login
Location: Hyderabad
(17.3833°N, 78.4667°E)
Time: 03:05:52
(UTC+05:30)
Language:

H-2A R/B - Orbit

View from above orbital plane
View from above orbital plane
View from above satellite
View from above satellite

Ground track
Ground track

The orbit data is extracted from the following two-line orbital elements,

1 26899U 01038B   17234.56010442  .00000641  00000-0  23783-3 0  9992
2 26899  28.4546  37.9858 7115300 232.5581  39.6213  2.48127220138169
Epoch (UTC): 22 August 2017 13:26:33
Eccentricity: 0.7115300
inclination: 28.4546°
perigee height: 270 km
apogee height: 33067 km
right ascension of ascending node: 37.9858°
argument of perigee: 232.5581°
revolutions per day: 2.48127220
mean anomaly at epoch: 39.6213°
orbit number at epoch: 13816

The dashed part of the orbit path shows where the satellite is in the earth's shadow,  

DLR